Location: Kalberh�ni
(46.4610°N, 7.2453°E)
Time: 15:06:04
(UTC+00:00)

Cosmos 1606 Rocket - Pass Details

Date: 25 October 2021
Orbit: 602 x 633 km, 82.5° (Epoch: 04 December)

Event Time Altitude Azimuth Distance (km) Brightness Sun altitude
Rises 19:11:59 0° 205° (SSW) 2,916 7.2 -28.9°
Reaches altitude 10° 19:14:19 10° 212° (SSW) 2,012 6.4 -29.3°
Enters shadow 19:17:43 38° 255° (WSW) 969 4.9 -29.9°
Exits shadow 19:22:37 11° 355° (N) 1,941 6.3 -30.7°
Drops below altitude 10° 19:22:56 10° 357° (N) 2,056 6.4 -30.8°
Sets 19:25:11 0° 4° (N) 2,929 7.2 -31.1°
